Location: Unspecified
(0.0000°N, 0.0000°E)
Time: 07:58:44
(UTC+00:00)

Vanguard 2 - All Passes

Search period start: 20 August 2017 00:00
Search period end: 30 August 2017 00:00
Orbit: 555 x 2938 km, 32.9° (Epoch: 19 August)

Date Brightness Start Highest point End Pass type
(mag) Time Alt. Az. Time Alt. Az. Time Alt. Az.
20 Aug - 00:29:08 10° WSW 00:46:19 74° NW 01:03:03 10° NE visible
20 Aug - 02:45:12 10° W 02:59:50 31° NNW 03:11:55 10° NNE visible
20 Aug - 11:46:22 10° NW 11:50:45 74° NE 11:54:42 10° ESE daylight
20 Aug - 13:58:48 10° SSW 13:59:20 10° SSW 13:59:52 10° SSW daylight
20 Aug - 20:29:10 10° SSW 20:38:42 24° SSE 20:50:56 10° E visible
20 Aug - 22:36:42 10° SW 22:51:33 65° SE 23:09:17 10° ENE visible
21 Aug - 00:47:59 10° WSW 01:04:55 60° NW 01:21:09 10° NE visible
21 Aug - 03:06:02 10° WNW 03:18:51 24° NNW 03:29:33 10° NNE visible
21 Aug - 09:56:35 10° NNW 10:00:14 17° NNE 10:03:13 10° ENE daylight
21 Aug - 12:04:45 10° WNW 12:08:56 50° SW 12:12:49 10° SE daylight
21 Aug - 20:46:38 10° SSW 20:57:26 32° SE 21:11:42 10° E visible
21 Aug - 22:54:49 10° SW 23:10:03 80° SE 23:28:06 10° ENE visible
22 Aug - 01:07:15 10° WSW 01:23:36 48° NW 01:39:07 10° NE visible
22 Aug - 03:27:33 10° WNW 03:38:07 19° NNW 03:47:07 10° NNE visible
22 Aug - 10:13:55 10° NNW 10:18:49 29° NNE 10:22:34 10° E daylight
22 Aug - 12:23:39 10° W 12:27:07 24° SW 12:30:26 10° SSE daylight
22 Aug - 19:00:11 10° SSE 19:03:40 12° SSE 19:07:35 10° SE visible
22 Aug - 21:04:16 10° SSW 21:15:58 42° SE 21:31:48 10° ENE visible
22 Aug - 23:13:08 10° WSW 23:28:34 83° NW 23:46:37 10° NE visible
23 Aug - 01:26:57 10° W 01:42:28 38° NNW 01:56:59 10° NNE visible
23 Aug - 03:49:41 10° NW 03:57:42 15° NNW 04:04:41 10° N visible
23 Aug - 08:24:11 10° N 08:27:04 12° NNE 08:29:34 10° NE daylight
23 Aug - 10:31:45 10° NW 10:37:14 55° NNE 10:41:16 10° ESE daylight
23 Aug - 12:43:34 10° WSW 12:45:24 13° SSW 12:47:11 10° S daylight
23 Aug - 19:16:17 10° S 19:22:36 17° SE 19:30:32 10° ESE visible
23 Aug - 21:22:02 10° SW 21:34:22 54° SE 21:51:22 10° ENE visible
23 Aug - 23:31:44 10° WSW 23:47:09 68° NW 00:04:55 10° NE visible
24 Aug - 01:47:12 10° W 02:01:32 30° NNW 02:14:48 10° NNE visible
24 Aug - 04:12:11 10° NW 04:17:32 12° NNW 04:22:20 10° N visible
24 Aug - 08:40:54 10° NNW 08:46:02 19° NNE 08:49:55 10° ENE daylight
24 Aug - 10:50:01 10° WNW 10:55:28 76° SW 10:59:32 10° SE daylight
24 Aug - 19:33:17 10° SSW 19:41:16 24° SE 19:52:04 10° E visible
24 Aug - 21:39:58 10° SW 21:52:45 70° SE 22:10:29 10° ENE visible
24 Aug - 23:50:39 10° WSW 00:05:54 54° NNW 00:23:01 10° NE visible
25 Aug - 02:08:01 10° WNW 02:20:52 24° NNW 02:32:38 10° NNE visible
25 Aug - 04:34:26 10° NNW 04:37:31 11° N 04:40:23 10° N visible
25 Aug - 06:50:14 10° N 06:52:54 11° N 06:55:18 10° NNE daylight
25 Aug - 08:58:20 10° NNW 09:04:49 29° NNE 09:09:17 10° E daylight
25 Aug - 11:08:42 10° WNW 11:13:35 37° SW 11:17:23 10° SSE daylight
25 Aug - 19:50:37 10° SSW 19:59:42 32° SE 20:12:43 10° E visible
25 Aug - 21:58:06 10° SW 22:11:10 87° SE 22:29:15 10° NE visible
26 Aug - 00:09:57 10° W 00:24:47 43° NNW 00:41:02 10° NE visible
26 Aug - 02:29:25 10° WNW 02:40:30 19° NNW 02:50:33 10° NNE visible
26 Aug - 04:54:54 10° NNW 04:57:32 11° N 04:59:59 10° N visible
26 Aug - 07:06:48 10° NNW 07:12:14 15° NNE 07:16:32 10° NE daylight
26 Aug - 09:16:11 10° NW 09:23:24 47° NNE 09:28:06 10° ESE daylight
26 Aug - 11:28:02 10° W 11:31:39 20° SW 11:34:44 10° S daylight
26 Aug - 20:08:10 10° SSW 20:18:00 43° SE 20:32:42 10° ENE visible
26 Aug - 22:16:29 10° WSW 22:29:42 76° NW 22:47:44 10° NE visible
27 Aug - 00:29:42 10° W 00:43:53 34° NNW 00:58:59 10° NNE visible
27 Aug - 02:51:09 10° NW 03:00:24 16° NNW 03:08:44 10° NNE visible
27 Aug - 05:13:15 10° NNW 05:17:28 12° N 05:21:12 10° NNE visible
27 Aug - 07:24:06 10° NNW 07:31:23 21° NNE 07:36:36 10° ENE daylight
27 Aug - 09:34:21 10° NW 09:41:47 81° NE 09:46:30 10° ESE daylight
27 Aug - 11:49:21 10° SW 11:49:48 10° SW 11:50:15 10° SSW daylight
27 Aug - 18:21:07 10° S 18:25:51 15° SE 18:31:43 10° ESE visible
27 Aug - 20:25:55 10° SW 20:36:14 58° SE 20:52:08 10° ENE visible
27 Aug - 22:35:07 10° WSW 22:48:22 60° NNW 23:05:59 10° NE visible
28 Aug - 00:49:58 10° WNW 01:03:14 27° NNW 01:16:57 10° NNE visible
28 Aug - 03:12:47 10° NW 03:20:30 14° N 03:27:26 10° NNE visible
28 Aug - 05:31:02 10° NNW 05:37:14 14° N 05:42:21 10° NE visible
28 Aug - 07:41:44 10° NNW 07:50:20 30° NNE 07:56:00 10° E daylight
28 Aug - 09:52:55 10° WNW 09:59:57 58° SW 10:04:33 10° SE daylight
28 Aug - 18:37:48 10° S 18:44:15 22° SE 18:53:12 10° E visible
28 Aug - 20:43:52 10° SW 20:54:30 76° SE 21:11:09 10° ENE visible
28 Aug - 22:54:06 10° W 23:07:14 48° NNW 23:24:07 10° NE visible
29 Aug - 01:10:47 10° WNW 01:22:51 22° NNW 01:35:01 10° NNE visible
29 Aug - 03:33:37 10° NNW 03:40:41 14° N 03:46:58 10° NNE visible
29 Aug - 05:48:43 10° NNW 05:56:47 18° NNE 06:02:57 10° NE daylight
29 Aug - 07:59:37 10° NW 08:09:05 45° NNE 08:14:55 10° E daylight
29 Aug - 10:11:55 10° WNW 10:17:58 33° SW 10:22:13 10° SSE daylight
29 Aug - 18:55:01 10° SSW 19:02:28 32° SE 19:13:40 10° E visible
29 Aug - 21:02:03 10° WSW 21:12:53 85° NW 21:29:49 10° NE visible
29 Aug - 23:13:29 10° W 23:26:18 38° NNW 23:42:09 10° NE visible
